RH
30 39 46 41 39 33 37 38 41 36 30 29 29 32 28 36 39 50 58 59 56 52 48 48 46 44 41 35 32 32 31 32 27 25 24 29 35 38 38 37 34 32 31 29
35 45 37 34 35 37 38 42 44 37 31 33 36 36 32 37 38 42 50 55 53 50 52 50 49 43 38 34 34 33 32 30 28 25 28 31 34 41 39 36 34 34 34 40
46 36 33 34 36 40 42 45 44 41 34 37 36 42 34 33 35 38 44 45 45 47 50 51 52 45 39 38 36 34 33 31 32 33 32 35 40 40 42 41 43 56 66 71
42 34 34 36 42 40 47 38 37 35 43 52 36 60 43 37 37 41 46 48 48 49 46 50 52 48 39 36 37 37 35 34 36 36 32 36 41 45 49 56 66 74 82 86
40 32 33 36 36 36 39 30 37 38 46 48 49 61 51 40 40 40 47 46 48 50 48 52 52 43 34 33 35 33 33 34 32 36 36 38 40 43 50 64 73 70 73 81
38 31 30 33 30 30 30 36 44 56 59 69 51 60 58 49 40 40 41 43 48 47 47 48 47 41 35 35 42 35 34 29 33 40 40 41 42 45 50 66 76 74 72 72
41 39 33 31 35 33 37 46 66 67 64 66 49 56 46 40 38 41 45 43 47 46 48 50 47 43 38 38 39 34 36 43 48 44 45 42 40 42 56 74 80 80 81 72
53 51 42 40 40 43 48 62 81 66 66 58 57 53 50 39 42 44 42 42 46 49 46 48 42 40 38 34 33 35 38 40 40 43 43 43 45 52 73 85 88 87 90 94
57 58 41 47 46 50 50 58 54 66 80 90 74 62 47 40 39 43 42 45 49 51 49 46 40 37 33 32 29 32 38 41 42 48 49 52 54 56 65 81 85 86 83 83
41 57 60 50 41 48 45 47 54 80 87 93 76 75 64 45 43 46 49 51 48 52 47 42 40 35 32 30 30 34 40 48 50 54 53 54 53 50 55 69 87 88 84 82
51 64 60 58 59 62 60 58 75 76 86 98 94 76 60 45 47 50 51 50 51 51 47 43 40 35 32 32 35 40 55 58 54 53 57 55 53 53 58 68 82 92 88 86
77 80 83 69 71 68 61 56 62 95 86 98 96 79 45 48 55 52 53 49 52 52 48 44 39 36 34 34 40 49 55 55 51 60 60 57 55 56 59 65 83 90 95 89
72 90 97 83 67 61 74 68 66 77 88 84 90 71 49 56 49 52 56 55 53 55 50 43 40 38 36 39 49 56 58 51 57 59 56 59 59 58 59 67 80 94 92 90
78 88 85 80 70 77 92 90 80 73 96 74 79 62 53 52 61 65 68 67 64 50 40 41 46 47 46 45 44 67 53 55 53 53 56 55 55 57 60 65 78 83 84 89
80 90 85 82 82 92 92 90 79 85 73 82 61 62 62 59 67 70 71 70 61 57 61 59 60 64 65 73 74 57 46 47 44 48 53 49 55 58 61 67 70 76 82 89
94 89 97 95 89 89 96 84 83 74 73 73 74 83 57 42 39 44 54 86 85 83 79 78 78 68 59 52 43 41 44 40 42 51 50 52 59 60 61 67 72 75 82 84
98 99 100 85 80 82 91 86 84 69 70 72 80 61 28 33 36 36 37 38 39 40 39 40 42 43 39 38 38 44 38 38 45 52 52 55 61 64 62 65 71 73 78 82
99 97 100 94 94 95 58 56 66 70 62 63 51 32 30 31 31 34 42 40 41 43 44 49 51 53 51 49 52 54 57 61 65 66 63 61 66 67 65 66 70 70 72 80
88 98 99 98 76 66 67 57 63 64 63 42 40 38 40 33 31 28 40 54 63 69 79 78 78 78 88 90 90 83 82 81 79 79 80 77 76 78 75 70 68 69 70 76
94 92 98 100 99 95 58 31 30 42 72 42 54 37 29 42 72 53 72 86 91 96 95 96 94 92 93 94 92 96 98 100 100 100 100 100 97 86 86 87 80 67 68 74
94 99 95 98 99 95 72 28 43 93 74 42 38 36 39 59 70 83 89 88 87 82 80 77 83 89 89 80 79 82 86 92 92 92 93 99 99 98 90 86 87 87 68 76
95 98 98 99 100 94 45 42 64 69 50 48 52 52 80 85 92 89 82 78 73 78 75 73 76 76 77 70 74 79 84 91 90 86 92 97 96 93 99 96 91 94 81 87
89 80 89 90 88 65 82 81 69 62 62 70 82 84 88 87 84 80 76 71 71 76 85 85 82 74 67 70 77 87 88 79 82 85 84 82 90 95 93 95 100 100 100 100
84 85 94 90 92 79 91 78 64 72 86 86 83 81 79 84 78 77 72 74 74 90 84 71 69 71 73 83 87 75 78 84 92 92 89 90 90 90 91 92 99 100 100 99
89 94 96 99 97 96 93 73 84 88 82 79 73 74 75 78 83 79 81 86 90 72 73 69 67 69 78 93 78 84 88 94 96 90 88 88 89 93 94 96 99 100 100 99
91 95 99 94 82 93 96 94 79 82 82 74 73 71 77 78 79 78 87 86 71 70 78 80 72 65 67 88 88 94 95 92 94 86 86 88 93 90 93 94 94 96 99 99
Wind_Speed
3 0 7 10 7 2 2 2 4 8 7 3 3 6 4 4 5 7 8 9 8 7 8 16 19 21 21 18 16 15 15 14 12 15 15 15 15 12 17 18 20 22 22 21
2 9 8 5 5 6 4 6 9 6 5 3 6 10 2 7 4 7 13 11 13 9 8 11 19 20 19 17 14 13 13 11 12 14 14 12 12 10 15 20 22 23 23 21
7 7 6 5 5 5 5 5 6 8 3 4 1 7 2 3 3 3 5 4 5 9 9 6 10 17 17 15 13 11 10 9 9 10 11 11 8 11 13 20 23 22 20 16
6 4 9 5 6 7 6 9 7 6 1 3 2 4 7 3 4 2 3 5 5 6 6 7 13 15 15 12 11 9 7 7 7 7 9 11 11 11 13 16 17 17 17 15
7 2 2 2 5 7 9 4 6 3 3 2 1 3 7 3 6 4 6 5 6 7 7 7 11 17 15 11 9 4 2 4 7 4 7 10 11 12 13 13 13 15 16 18
6 3 2 5 4 4 1 3 5 4 3 2 4 5 5 3 2 4 3 9 11 9 7 10 16 17 16 16 15 12 6 2 4 4 4 7 10 14 15 14 13 13 15 16
4 5 3 5 3 1 4 4 3 3 2 5 1 1 7 3 2 4 8 9 9 9 8 9 10 17 19 16 12 11 11 10 7 2 4 7 12 14 13 11 10 10 10 12
0 6 4 5 0 3 2 5 5 6 4 4 4 4 5 2 3 4 5 6 8 7 7 10 15 15 15 16 12 12 11 10 5 7 6 8 10 10 8 6 7 7 8 7
4 4 2 6 2 2 2 2 2 4 2 2 3 6 8 1 3 4 2 4 8 8 9 11 15 18 21 19 16 16 13 9 12 10 7 8 9 11 11 10 10 10 11 12
3 2 3 4 0 5 2 3 3 3 3 5 4 4 6 8 7 4 7 8 9 9 10 11 13 20 21 20 18 14 13 14 14 12 10 10 14 16 15 14 13 13 12 12
3 4 4 1 3 3 3 1 4 4 2 3 3 5 6 6 5 6 8 9 12 12 12 11 12 18 21 18 13 12 16 17 16 14 12 12 15 15 15 15 14 13 13 13
2 4 2 2 4 7 3 1 3 4 4 5 4 6 7 5 2 4 8 9 8 12 11 9 11 14 14 16 15 16 23 18 17 15 12 14 16 16 17 16 15 14 14 14
2 1 2 5 3 1 3 5 2 4 3 6 4 8 3 4 3 7 7 9 9 9 8 7 6 8 11 13 19 17 21 20 17 15 15 17 17 18 18 17 17 16 17 18
2 3 6 6 4 3 1 13 14 2 2 6 9 25 12 13 8 7 8 9 8 3 3 5 3 7 15 9 14 23 25 22 17 16 17 21 22 19 20 18 17 18 19 20
2 4 4 4 3 3 6 13 16 14 17 9 25 19 18 12 7 7 7 6 2 6 7 9 8 6 7 21 23 21 24 20 19 19 21 26 23 21 21 20 20 21 20 19
4 3 1 4 7 9 13 17 15 17 18 16 21 22 9 2 4 8 9 8 5 5 6 7 6 7 13 16 17 22 22 22 24 24 27 28 25 23 23 23 22 21 21 19
3 5 2 5 5 5 12 13 17 14 11 8 11 8 2 4 6 6 7 7 6 6 5 6 6 9 14 18 21 21 25 29 30 30 30 31 30 28 28 27 24 24 23 21
5 3 2 4 3 10 6 0 7 15 14 10 3 3 3 2 1 3 3 4 6 8 10 11 15 19 23 25 24 26 29 31 32 31 32 33 34 34 34 31 30 27 23 23
4 4 3 2 7 15 12 5 4 6 6 3 4 5 2 2 1 4 10 11 11 11 15 17 21 22 24 28 29 27 27 27 25 26 29 33 36 36 36 37 39 34 27 24
5 2 3 3 4 6 1 3 2 1 7 3 4 3 2 2 3 1 9 11 12 18 19 20 20 19 21 24 24 23 24 23 25 27 28 30 32 33 33 35 39 40 31 28
4 1 9 7 5 7 2 2 1 3 4 1 3 1 2 3 2 4 6 11 15 15 14 16 15 16 18 24 24 22 21 22 27 31 31 30 32 32 33 35 34 35 35 30
7 7 4 3 4 9 4 2 5 1 1 2 3 4 8 7 7 8 9 9 14 14 18 20 18 18 19 23 24 22 22 26 28 29 31 32 34 36 32 28 31 28 30 28
3 6 4 8 6 3 2 3 2 2 3 3 5 8 8 7 8 8 8 9 11 14 17 18 18 18 20 23 23 21 24 28 29 29 30 31 33 34 34 31 29 27 28 26
3 2 1 2 3 4 3 1 3 4 9 10 9 8 7 8 7 7 8 7 10 13 15 18 18 16 17 21 20 22 26 29 29 30 30 32 33 36 35 36 29 28 26 22
4 5 3 4 3 3 3 5 9 11 11 11 10 9 9 8 8 6 5 6 9 13 14 13 15 17 17 18 19 20 24 26 26 26 28 29 31 32 34 37 32 28 27 24
4 7 5 7 8 3 5 10 11 11 10 10 11 10 11 9 5 5 4 8 9 8 11 14 15 16 17 18 18 19 23 26 25 26 25 26 28 30 31 30 35 30 19 17
Wind_Direction
353 67 219 218 208 186 9 270 277 274 275 279 242 276 299 144 130 163 167 163 163 172 168 158 148 141 137 133 124 114 110 98 81 65 58 56 57 48 32 22 11 1 355 348
312 251 233 170 206 224 235 283 287 291 275 185 287 283 299 177 213 202 181 174 173 171 169 165 159 150 149 144 131 119 102 84 62 51 58 59 50 30 15 6 1 353 347 342
180 228 86 162 222 225 225 199 245 241 346 273 11 311 279 261 334 186 191 201 186 176 163 165 169 162 155 150 140 125 108 90 69 57 60 55 46 28 0 1 358 359 357 350
230 252 251 247 246 159 273 202 212 241 147 264 129 259 306 344 283 255 166 172 173 172 177 180 177 172 168 155 144 130 121 92 68 44 34 38 33 20 1 355 1 9 14 15
247 283 118 211 230 162 237 197 195 198 170 8 359 97 267 5 310 269 211 201 199 195 180 182 189 181 176 163 143 143 166 68 31 357 15 24 14 1 355 355 3 14 23 29
243 289 248 221 237 202 205 121 56 49 98 169 218 142 280 254 239 308 212 205 200 191 180 189 196 188 186 179 183 186 202 195 225 260 356 11 1 356 354 354 356 2 14 18
315 251 257 183 254 187 111 79 322 331 349 229 102 65 233 231 201 266 277 227 195 186 178 189 192 200 202 196 192 187 200 201 208 268 336 350 352 347 346 345 348 347 357 8
133 329 359 350 211 228 141 168 183 223 212 245 313 251 249 206 293 320 297 200 176 175 193 199 202 205 200 197 206 217 218 228 249 269 302 331 335 333 326 319 321 327 334 351
170 265 343 47 4 81 140 142 195 102 36 53 253 299 317 177 301 19 358 163 202 196 194 202 210 206 202 201 213 223 224 232 244 257 284 300 321 329 320 310 310 320 323 336
253 246 24 323 207 40 100 144 61 10 341 280 267 267 238 286 315 314 256 224 224 218 205 209 208 208 210 211 214 214 220 229 241 253 275 302 329 334 329 315 308 309 314 313
135 117 289 89 18 167 339 57 65 99 154 253 289 248 219 240 278 270 267 236 231 222 218 208 209 211 216 213 211 206 229 230 234 254 272 305 322 324 318 304 297 290 295 297
353 142 90 318 329 321 304 181 123 128 213 237 213 260 245 268 251 222 264 258 243 230 214 201 201 207 207 216 204 240 226 227 243 254 277 305 311 311 310 302 290 289 289 286
169 47 52 342 9 322 333 314 189 107 53 210 255 268 233 241 235 267 260 273 260 236 199 178 161 200 218 222 237 234 248 244 248 263 287 297 299 301 304 302 298 287 289 284
52 152 170 233 222 138 12 321 308 333 130 260 234 277 288 294 322 314 287 277 270 246 134 99 123 233 245 242 241 258 246 248 258 275 285 292 296 296 295 296 289 285 284 280
104 201 203 243 239 181 229 238 251 214 239 234 274 273 282 309 322 316 303 301 135 161 177 199 234 287 267 257 259 260 249 255 269 275 279 283 287 287 287 281 278 280 282 279
6 270 138 268 233 226 253 246 235 243 248 257 271 277 302 73 34 13 7 8 357 347 335 317 308 285 273 261 257 254 255 264 267 267 270 276 276 275 275 270 268 271 271 270
175 146 127 274 212 272 279 232 224 239 227 214 253 261 36 39 31 21 15 45 44 32 24 353 324 307 299 287 279 272 268 271 269 268 270 274 270 266 266 264 260 262 262 262
153 148 167 282 69 268 254 22 241 230 247 238 270 108 88 74 97 78 43 62 14 3 2 355 351 341 336 330 314 302 296 293 291 286 282 279 277 271 269 266 259 257 256 255
171 149 259 245 255 284 292 318 192 198 265 198 162 120 89 350 130 54 24 27 29 31 26 20 18 23 28 18 8 8 4 354 342 331 318 311 299 285 277 272 265 257 251 248
118 113 191 125 251 258 230 245 4 339 279 146 114 146 113 34 64 341 30 40 41 36 28 19 15 20 24 15 12 8 1 360 351 343 335 327 314 296 283 275 268 258 250 246
176 184 224 234 262 276 274 161 335 112 309 147 149 114 102 68 111 86 46 48 44 28 19 15 18 23 16 9 7 4 357 353 342 335 333 324 318 307 294 282 273 254 244 238
166 179 187 193 222 272 19 50 172 178 36 80 80 58 87 99 86 67 52 33 20 23 13 12 12 12 12 7 3 359 355 347 341 336 330 328 326 324 309 295 280 252 241 236
225 195 185 190 219 101 23 105 2 266 79 53 90 83 102 93 77 62 48 41 22 7 13 16 16 8 4 3 0 355 350 347 342 339 334 327 324 323 324 309 285 261 234 229
325 64 195 50 199 204 194 110 48 89 114 96 96 97 87 85 70 68 48 25 14 31 16 10 7 357 355 358 1 356 352 349 347 342 340 340 339 333 327 322 296 272 240 223
169 132 194 247 248 153 260 195 129 110 108 110 90 76 73 79 55 56 45 13 39 16 9 2 0 356 346 344 348 351 349 346 343 340 339 340 340 338 343 339 319 280 250 228
188 181 194 240 201 147 143 145 138 131 130 126 116 94 75 80 75 76 58 44 31 4 356 0 350 340 334 331 335 353 353 349 344 340 337 335 337 337 336 340 340 335 286 255